Location: Carrizal
(9.8472°N, 67.3428°W)
Time: 05:53:19
(UTC+00:00)

Cosmos 1818 - Pass Details

Date: 13 April 2024
Orbit: 770 x 802 km, 65.0° (Epoch: 25 May)

Event Time Altitude Azimuth Distance (km) Brightness Sun altitude
Rises 23:14:42 0° 341° (NNW) 3,293 7.2 -9.3°
Reaches altitude 10° 23:17:08 10° 343° (NNW) 2,360 6.4 -9.9°
Maximum altitude 23:22:33 75° 68° (ENE) 821 3.5 -11.2°
Drops below altitude 10° 23:27:56 10° 153° (SSE) 2,342 5.6 -12.5°
Enters shadow 23:29:46 - 154° (SSE) 3,043 6.2 -12.9°
